Lexington, KY

7:56 PM EST on January 21, 2017 (GMT -0500)
Blue Grass Airport

Weather History for KLEX - May, 2013

Change the Weather History Date:

Monday, May 6, 2013

  Actual Average Record
Temperature  
Mean Temperature 60 °F 61 °F  
Max Temperature 68 °F 72 °F 89 °F (2001)
Min Temperature 52 °F 51 °F 34 °F (1968)
Degree Days  
Heating Degree Days 5 5  
Month to date heating degree days 21 33  
Since 1 July heating degree days 4608 4522  
Cooling Degree Days 0 1  
Month to date cooling degree days 10 6  
Year to date cooling degree days 39 28  
Growing Degree Days 10 (Base 50)    
Moisture  
Dew Point 52 °F    
Average Humidity 81    
Maximum Humidity 93    
Minimum Humidity 68    
Precipitation  
Precipitation 1.10 in 0.17 in 2.46 in (1898)
Month to date precipitation 3.03 0.98  
Year to date precipitation 19.23 15.05  
Snow  
Snow 0.00 in 0.00 in 0.20 in (1898)
Month to date snowfall 0.0 0.0  
Since 1 July snowfall 12.5 13.0  
Snow Depth 0.00 in    
Sea Level Pressure  
Sea Level Pressure 29.87 in    
Wind  
Wind Speed 10 mph (ENE)    
Max Wind Speed 23 mph    
Max Gust Speed 30 mph    
Visibility 8 miles    
Events Rain    
T = Trace of Precipitation, MM = Missing Value Source: NWS Daily Summary

Daily Weather History Graph

Daily Weather History Graph

Search for Another Location

Airport or City:

Trip Planner

Search our weather history database for the weather conditions in past years. The results will help you decide how hot, cold, wet, or windy it might be!

Date:

Astronomy

May. 06, 2013 Rise Set
Actual Time 6:36 AM EDT 8:34 PM EDT
Civil Twilight 6:07 AM EDT 9:03 PM EDT
Nautical Twilight 5:32 AM EDT 9:38 PM EDT
Astronomical Twilight 4:54 AM EDT 10:16 PM EDT
Moon 4:34 AM EDT (5/6) 5:36 PM EDT (5/6)
Length of Visible Light 14h 55m
Length of Day
13h 57m
Waning Crescent, 11% of the Moon is Illuminated
May 6
Waning Crescent
May 9
New
May 18
First Quarter
May 25
Full
May 31
Last Quarter

Hourly Weather History & Observations

Time (EDT) Temp. Dew Point Humidity Pressure Visibility Wind Dir Wind Speed Gust Speed Precip Events Conditions
12:54 AM 55.0 °F 52.0 °F 89% 29.85 in 10.0 mi ENE 16.1 mph 24.2 mph 0.00 in   Mostly Cloudy
1:54 AM 55.0 °F 52.0 °F 89% 29.83 in 10.0 mi ENE 18.4 mph 26.5 mph 0.00 in Rain Light Rain
2:01 AM 55.4 °F 51.8 °F 88% 29.83 in 10.0 mi ENE 19.6 mph 26.5 mph 0.00 in Rain Light Rain
2:54 AM 55.0 °F 52.0 °F 89% 29.83 in 5.0 mi ENE 18.4 mph 28.8 mph 0.00 in Rain Rain
3:54 AM 55.0 °F 52.0 °F 89% 29.82 in 9.0 mi ENE 13.8 mph - 0.03 in Rain Light Rain
4:10 AM 55.4 °F 51.8 °F 88% 29.82 in 10.0 mi NE 17.3 mph - 0.00 in   Overcast
4:47 AM 55.4 °F 51.8 °F 88% 29.81 in 10.0 mi ENE 15.0 mph - 0.00 in Rain Light Rain
4:52 AM 55.4 °F 51.8 °F 88% 29.82 in 10.0 mi ENE 15.0 mph - 0.00 in Rain Light Rain
4:54 AM 55.0 °F 52.0 °F 89% 29.82 in 10.0 mi ENE 13.8 mph - 0.00 in Rain Light Rain
5:27 AM 55.4 °F 51.8 °F 88% 29.82 in 10.0 mi ENE 20.7 mph - 0.01 in   Mostly Cloudy
5:35 AM 55.4 °F 51.8 °F 88% 29.82 in 10.0 mi ENE 18.4 mph 25.3 mph 0.01 in   Mostly Cloudy
5:54 AM 55.0 °F 52.0 °F 89% 29.83 in 10.0 mi ENE 15.0 mph 23.0 mph 0.01 in   Overcast
6:54 AM 55.0 °F 52.0 °F 89% 29.84 in 10.0 mi ENE 13.8 mph - 0.00 in Rain Light Rain
7:54 AM 55.0 °F 52.0 °F 89% 29.86 in 10.0 mi East 15.0 mph - 0.00 in Rain Light Rain
8:02 AM 53.6 °F 51.8 °F 94% 29.88 in 5.0 mi SSE 13.8 mph - 0.00 in Rain Light Rain
8:14 AM 51.8 °F 50.0 °F 94% 29.88 in 5.0 mi SSE 8.1 mph - 0.01 in Rain Light Rain
8:54 AM 53.1 °F 50.0 °F 89% 29.88 in 10.0 mi East 8.1 mph - 0.01 in   Overcast
9:54 AM 55.0 °F 50.0 °F 83% 29.88 in 10.0 mi NE 8.1 mph - N/A   Overcast
10:54 AM 57.0 °F 52.0 °F 83% 29.90 in 10.0 mi East 9.2 mph - 0.00 in Rain Light Rain
11:54 AM 60.1 °F 55.0 °F 83% 29.88 in 10.0 mi ENE 20.7 mph 26.5 mph 0.00 in   Overcast
12:01 PM 60.8 °F 55.4 °F 82% 29.88 in 10.0 mi ENE 19.6 mph 26.5 mph N/A   Mostly Cloudy
12:54 PM 60.1 °F 54.0 °F 80% 29.88 in 10.0 mi ENE 17.3 mph - N/A   Mostly Cloudy
1:14 PM 60.8 °F 53.6 °F 77% 29.89 in 10.0 mi ENE 18.4 mph - N/A   Mostly Cloudy
1:54 PM 63.0 °F 55.0 °F 75% 29.88 in 10.0 mi ENE 12.7 mph - N/A   Overcast
2:54 PM 66.9 °F 55.9 °F 68% 29.87 in 10.0 mi ENE 11.5 mph - N/A   Mostly Cloudy
3:54 PM 66.9 °F 55.9 °F 68% 29.85 in 10.0 mi NE 17.3 mph 21.9 mph N/A   Scattered Clouds
4:54 PM 64.9 °F 55.0 °F 70% 29.83 in 10.0 mi NE 12.7 mph 21.9 mph N/A   Mostly Cloudy
5:51 PM 57.2 °F 46.4 °F 67% 29.87 in 10.0 mi SSW 10.4 mph - N/A   Overcast
5:54 PM 55.9 °F 48.0 °F 75% 29.87 in 10.0 mi South 9.2 mph - 0.00 in Rain Light Rain
6:01 PM 55.4 °F 48.2 °F 77% 29.88 in 1.8 mi Variable 3.5 mph - 0.02 in Rain Heavy Rain
6:12 PM 53.6 °F 50.0 °F 88% 29.90 in 0.8 mi ESE 6.9 mph - 0.26 in Rain Heavy Rain
6:24 PM 53.6 °F 51.8 °F 94% 29.90 in 1.5 mi South 9.2 mph - 0.43 in Rain Heavy Rain
6:32 PM 51.8 °F 50.0 °F 94% 29.90 in 3.0 mi Variable 3.5 mph - 0.47 in Rain Light Rain
6:54 PM 53.1 °F 51.1 °F 93% 29.89 in 10.0 mi West 3.5 mph - 0.47 in Rain Light Rain
7:54 PM 53.1 °F 51.1 °F 93% 29.89 in 6.0 mi North 8.1 mph - 0.01 in Rain Rain
8:34 PM 53.6 °F 51.8 °F 94% 29.91 in 2.5 mi South 4.6 mph - 0.12 in Rain Rain
8:54 PM 53.6 °F 51.8 °F 94% 29.92 in 2.0 mi Calm Calm - N/A Rain Heavy Rain
9:02 PM 53.6 °F 51.8 °F 94% 29.92 in 1.8 mi Calm Calm - 0.10 in Rain Heavy Rain
9:07 PM 53.6 °F 51.8 °F 94% 29.92 in 3.0 mi NW 3.5 mph - 0.14 in Rain Heavy Rain
9:54 PM 54.0 °F 51.1 °F 90% 29.92 in 8.0 mi Calm Calm - 0.18 in Rain Rain
10:33 PM 53.6 °F 51.8 °F 94% 29.93 in 10.0 mi North 5.8 mph - N/A Rain Light Rain
10:54 PM 54.0 °F 51.1 °F 90% 29.92 in 10.0 mi NW 3.5 mph - 0.07 in Rain Light Rain
11:54 PM 54.0 °F 51.1 °F 90% 29.90 in 10.0 mi North 4.6 mph - 0.00 in   Mostly Cloudy